Location: Bayshore Village Mobile Home Park
(26.6945°N, 81.8642°W)
Time: 23:41:21
(UTC+00:00)

Delta 128 - Pass Details

Date: 17 June 2021
Orbit: 608 x 1216 km, 28.0° (Epoch: 05 August)

Event Time Altitude Azimuth Distance (km) Brightness Sun altitude
Rises 01:01:05 0° 265° (W) 2,876 8.0 -8.3°
Reaches altitude 10° 01:03:25 10° 266° (W) 1,950 7.0 -8.8°
Maximum altitude 01:07:53 80° 353° (N) 619 3.6 -9.6°
Drops below altitude 10° 01:12:29 10° 81° (E) 2,013 5.7 -10.5°
Enters shadow 01:13:14 - 82° (E) 2,305 6.0 -10.6°
